Dewpoint
1 1 1 0 1 -0 -3 0 0 1 1 1 1 -3 -2 -5 -6 -6 -8 -10 -11 -14 -11 -10 -14 -16 -16 -3 -3 -9 -11 -16 0 0 -0 -3 -4 -6 -6 -10 -10 -9 -9 -11 -11 -12 -9
0 1 -0 1 1 0 1 1 1 0 -0 -2 -5 1 -1 -4 -4 -5 -9 -11 -12 -9 -9 -12 -14 -13 -1 -2 -6 -8 -5 -6 -8 1 -0 -3 -4 -6 -9 -11 -11 -11 -8 -9 -10 -10 -10
0 0 0 0 1 0 0 1 1 1 0 -6 -5 -4 -4 -3 -4 -4 -7 -11 -8 -10 -9 -11 -12 -9 -1 -7 -8 -6 -1 -1 -12 -13 -5 -0 -3 -7 -8 -8 -8 -9 -7 -8 -9 -9 -9
0 -0 -0 0 -0 0 0 -0 -1 -0 0 -0 -3 -3 -4 -5 -4 -4 -7 -10 -8 -9 -9 -10 -9 2 -2 -8 -9 -7 -5 -0 -2 -10 -8 -4 -3 -2 -6 -7 -7 -6 -7 -5 -8 -9 -9
-0 -0 -0 -0 -0 -1 -0 -0 -1 -0 -0 -1 -2 -4 -7 -6 -3 -5 -7 -8 -6 -7 -7 -5 1 2 -3 -7 -10 -10 -5 -2 -2 -9 -10 -6 -5 -4 -4 -4 -3 -4 -3 -4 -5 -8 -8
-1 -1 -1 -1 -1 -1 -1 -0 -1 -1 -0 -1 -1 -5 -8 -7 -4 -4 -6 -2 -1 -1 2 3 1 3 -1 -11 -6 -2 -1 -3 2 -6 -9 -10 -5 -4 -4 -4 -1 -2 -3 -4 -4 -7 -8
-1 -1 -1 -1 -1 -1 -1 -0 -1 -1 -1 -1 -2 -6 -7 -6 -3 -4 -2 0 -2 1 -2 -4 -5 -2 -5 -3 -4 -3 2 2 1 -2 -8 -9 -5 -4 -3 -3 -5 -5 -4 -4 -6 -9 -8
-2 -1 -1 -1 -1 -2 -2 -1 -1 -2 -0 -1 -1 -8 -8 -7 -3 -3 2 0 1 1 1 -2 -2 -2 -3 -4 -3 -4 0 -1 2 2 -6 -5 -4 -8 -8 -7 -6 -6 -4 -4 -6 -9 -7
-2 -2 -2 -2 -2 -1 -1 -2 -1 -1 -2 -1 -2 -7 -9 -8 -3 0 1 1 1 2 0 -3 -4 -3 -2 -2 -4 -6 -3 -3 3 3 2 -2 -6 -5 -5 -5 -5 -4 -3 -4 -4 -7 -6
-2 -2 -2 -2 -3 -1 -2 -2 -2 -3 -2 -3 -2 -3 -8 -7 0 1 0 1 2 2 2 -8 -7 -3 -2 -3 -4 -6 -7 -2 -2 2 1 1 -7 -4 -3 -3 -3 -1 -5 -5 -5 -4 -2
-2 -3 -2 -3 -2 -3 -2 -2 -3 -2 -2 -2 -2 -2 -8 -5 0 1 0 2 2 2 1 -14 -6 -4 -3 -4 -6 -6 -8 -9 -2 -3 -2 -1 -4 -5 -3 -3 -4 -3 -5 -5 -4 -3 -3
-1 -3 -3 -3 -3 -2 -3 -2 -3 -2 -3 -3 -2 -2 -6 -3 0 1 1 3 3 5 -2 -10 -9 -7 -7 -6 -5 -6 -3 -6 -8 -5 -6 -3 -4 -4 -3 -5 -6 -6 -5 -4 -3 -2 1
-4 -2 -3 -3 -4 -4 -4 -2 -2 -2 -2 -3 -3 -2 -5 -1 -1 2 2 2 2 -1 -10 -6 -6 -7 -7 -6 -5 -4 -2 -3 -5 -2 -3 -7 -3 -4 -5 -4 -6 -5 -3 1 2 2 2
-4 -5 -4 -3 -5 -3 -4 -3 -2 -2 -3 -3 -3 -3 -3 -2 -2 1 2 -0 0 -9 -8 -7 -6 -8 -7 -6 -4 -5 -2 -1 -5 -4 -2 -4 0 -3 -4 -4 -4 -4 -2 0 3 5 1
-5 -5 -6 -6 -5 -3 -2 -4 -4 -3 -4 -3 -3 -3 -3 -2 -1 -0 1 2 -7 -9 -9 -7 -9 -10 -9 -6 -5 -5 -4 -0 -4 -6 -3 -5 -8 -8 -5 -4 -4 -2 -1 -5 -0 1 4
-3 -3 -5 -6 -4 -3 -4 -4 -5 -4 -3 -3 -4 -2 -3 -2 -1 0 1 -1 -7 -8 -6 -8 -8 -7 -5 -4 -4 -5 -2 -0 0 -3 -7 -5 -4 -10 -6 -4 -4 -3 -4 -1 -0 4 5
-4 -5 -6 -6 -4 -5 -6 -4 -4 -3 -3 -2 -3 -1 -4 -1 -0 1 2 -3 -7 -9 -6 -6 -7 -4 -5 -3 -4 -4 -2 -1 -1 -1 -3 -5 -2 -3 -4 -1 -2 -2 -0 0 -1 0 3
-5 -6 -5 -6 -6 -6 -5 -3 -6 -6 -4 -2 -3 -1 -3 0 1 -1 1 -4 -7 -7 -8 -7 -6 -4 -3 -4 -3 -4 -4 -4 -2 -1 4 -2 -1 -0 1 -4 -4 -3 -1 1 2 4 1
-4 -6 -6 -6 -7 -6 -3 -4 -6 -6 -3 -2 -4 -3 -4 0 1 0 -3 -5 -6 -6 -7 -6 -6 -6 -6 -4 -3 -4 -5 -5 -5 -2 2 2 -0 1 1 -1 -2 -2 -2 -1 0 1 5
-5 -5 -6 -6 -5 -5 -5 -6 -5 -5 -3 -2 -2 0 -4 -0 -1 -2 -3 -2 -3 -5 -6 -8 -7 -7 -4 -4 -5 -3 -4 -6 -6 -5 -3 2 3 -1 -0 -0 -3 0 0 -1 0 4 3
-6 -6 -6 -5 -5 -6 -6 -6 -6 -5 -3 -2 -2 -2 -3 -1 -3 -2 -3 -1 -4 -3 -6 -7 -6 -6 -5 -3 -4 -3 -3 -5 -6 -6 -4 3 5 3 -3 -1 -1 -1 0 -0 0 0 2
-7 -6 -5 -4 -5 -6 -6 -5 -5 -6 -4 -3 -2 -3 -5 -5 -5 -5 -4 -1 -2 -3 -4 -5 -5 -6 -5 -4 -4 -2 -3 -2 -2 -5 -4 2 5 2 3 -2 -2 -0 -1 -2 -3 -3 -3
-7 -7 -6 -7 -6 -5 -6 -5 -5 -5 -4 -2 -3 -3 -2 -4 -5 -3 -3 -6 -6 -7 -4 -3 -5 -5 -3 -4 -4 -2 -2 -0 -2 -2 -1 -1 0 4 4 -0 -1 -0 -1 -2 -2 -3 -2
-7 -7 -7 -6 -7 -5 -6 -6 -5 -5 -4 -4 -2 -3 -2 -2 -5 -5 -7 -4 -5 -6 -6 -5 -4 -2 -3 -1 -1 -3 -3 -3 -3 -3 -3 -1 -0 0 4 2 6 -3 -6 -6 -4 -5 -6
-6 -6 -6 -6 -6 -7 -5 -5 -5 -6 -5 -3 -3 -2 -3 -1 -7 -7 -5 -5 -8 -6 -4 -4 -2 1 2 1 0 -0 0 0 1 -2 -2 -2 -0 2 2 1 -2 -6 -7 -7 -6 -8 -9
-6 -6 -6 -6 -7 -7 -6 -6 -5 -6 -6 -3 -4 -2 -2 -3 -4 -7 -8 -9 -5 -4 -4 -3 -1 1 2 2 4 2 1 -1 -0 -1 -3 -3 -2 2 2 2 1 -5 -6 -4 -6 -5 -4
-3 -3 -3 -4 -6 -7 -7 -7 -6 -6 -6 -4 -3 -3 -2 -2 -5 -5 -2 -3 -5 -4 -3 -1 0 1 1 3 3 3 2 -2 1 2 1 1 1 2 1 1 -3 -7 -6 -6 0 1 -1
-2 -2 -2 -2 -3 -6 -7 -7 -7 -7 -6 -5 -3 -2 -2 -3 -5 -6 -6 -5 -3 -2 1 0 2 2 2 4 1 0 1 -1 -2 0 -0 -0 2 2 1 2 2 -5 -5 -2 3 0 0
-1 -1 -1 -2 -2 -4 -7 -6 -6 -6 -5 -5 -3 -4 -3 -2 -5 -3 -4 -5 -2 -3 -2 1 -0 2 -1 1 -1 1 1 0 -2 -0 1 1 -1 -0 -2 -1 -2 -3 1 2 1 1 1
Wind_Speed
9 8 11 10 11 10 10 10 11 12 15 17 18 18 19 20 21 22 23 24 24 23 23 23 23 21 21 10 22 19 17 14 8 6 15 20 23 24 22 21 22 21 21 22 19 16 13
11 11 9 9 12 9 10 12 13 14 16 18 17 18 21 21 21 22 24 24 24 23 23 23 22 20 11 18 16 12 16 9 4 8 13 17 19 19 21 23 18 23 20 25 17 18 19
13 12 11 12 12 11 13 13 14 17 17 16 17 19 20 22 22 23 24 25 24 23 23 22 20 15 14 31 11 11 14 17 13 15 19 18 17 15 15 17 19 20 21 17 20 21 16
13 14 15 15 15 13 16 16 13 16 19 19 17 19 22 23 23 24 25 24 23 22 21 18 14 8 13 13 13 23 22 20 27 21 17 18 16 19 20 16 18 15 20 18 19 19 20
14 15 16 16 16 18 17 13 10 14 19 21 21 20 21 22 23 23 25 21 20 17 14 11 2 10 11 10 9 18 19 19 15 22 19 15 16 19 19 16 14 17 15 21 18 15 10
19 16 15 17 19 19 16 17 13 13 17 20 21 21 22 22 21 22 23 17 16 12 8 4 6 7 8 6 7 5 8 13 10 15 15 18 13 15 18 16 16 17 18 18 17 13 12
15 15 17 18 18 18 16 17 15 14 18 20 22 20 21 20 19 18 22 21 7 7 9 16 18 19 15 5 10 7 8 8 10 14 17 20 15 21 25 24 22 20 18 15 13 5 8
20 18 18 17 17 20 20 16 17 18 17 20 19 17 19 20 18 13 15 9 6 8 16 19 21 22 25 22 14 12 10 16 17 14 15 15 22 21 22 24 23 24 24 15 14 2 7
20 19 22 22 19 18 19 17 18 19 22 22 20 15 16 17 17 5 10 8 10 12 8 11 6 5 5 10 18 16 16 16 13 15 19 23 19 20 22 21 22 21 22 18 17 7 9
19 19 20 19 20 19 20 21 20 21 23 23 18 15 13 14 10 10 8 11 10 10 5 5 3 2 1 1 6 23 12 15 7 17 18 19 23 10 20 24 18 21 18 19 16 15 13
20 22 20 21 21 22 19 20 23 19 20 21 16 15 13 10 13 11 11 12 11 5 6 4 5 1 1 5 9 4 15 23 16 14 13 19 10 18 23 19 20 21 15 15 16 17 15
21 21 23 22 25 20 24 20 20 19 19 20 16 15 14 7 10 11 12 13 8 5 5 3 1 5 7 8 8 2 5 15 15 20 16 18 17 14 14 19 18 16 11 11 13 14 15
24 23 24 25 24 23 21 20 20 20 18 18 15 15 14 11 11 7 11 8 7 6 5 2 2 7 10 7 4 9 6 10 10 12 21 20 21 14 13 19 18 18 14 9 11 12 14
23 28 26 21 24 21 19 21 20 20 18 19 18 17 15 14 12 10 8 9 10 3 4 3 5 11 5 5 3 6 7 8 15 16 12 18 15 22 12 15 18 20 18 9 14 11 14
27 25 25 26 24 22 20 20 24 19 19 17 19 15 15 14 13 11 11 10 5 6 3 6 11 10 3 3 6 4 8 1 5 18 14 12 21 10 14 12 15 17 21 21 18 10 7
19 20 22 24 24 21 22 19 18 20 18 12 13 14 19 14 14 16 7 14 12 6 4 5 7 1 5 5 6 7 2 7 2 10 17 13 10 15 14 14 19 22 12 18 11 12 12
25 26 26 26 23 22 26 23 17 18 16 11 10 6 6 13 17 13 10 15 12 10 7 8 8 7 7 6 5 7 2 5 10 9 10 14 11 9 11 18 19 15 18 13 15 14 9
25 23 24 24 24 24 23 18 17 21 17 10 11 4 8 16 12 8 11 17 18 10 16 14 9 12 11 9 9 5 5 4 7 12 8 15 6 11 18 20 20 18 21 20 10 9 12
25 24 26 25 25 23 20 19 19 23 19 10 12 15 13 15 8 12 13 16 19 15 16 13 13 14 13 11 6 7 10 3 6 7 9 13 8 9 15 11 9 14 19 20 20 14 12
25 25 26 25 26 23 21 19 21 20 19 18 7 4 16 16 17 13 15 14 17 18 19 17 12 12 10 12 11 9 8 3 5 3 6 13 11 14 12 12 13 15 7 10 10 10 13
28 27 27 26 23 26 27 24 22 23 23 20 12 7 8 8 15 17 15 7 19 17 17 18 13 16 15 15 14 15 15 12 7 4 4 5 6 11 9 5 5 6 14 11 12 12 10
28 28 28 28 27 26 25 26 24 23 22 26 7 7 19 18 15 18 19 17 16 14 15 16 16 16 16 17 14 9 8 6 10 5 5 7 3 9 8 6 6 7 9 11 13 12 12
29 29 28 27 27 26 26 26 25 26 26 22 28 19 9 10 16 13 12 18 21 17 13 19 13 13 13 12 11 13 14 10 13 12 10 8 7 4 4 7 8 8 14 14 13 14 13
31 30 30 29 29 29 28 27 27 26 33 33 16 21 13 10 11 13 19 17 14 15 17 14 18 13 9 4 9 13 17 18 18 18 16 12 10 10 5 5 4 6 5 3 12 13 11
35 34 32 31 31 30 30 28 30 28 29 30 32 17 13 9 18 17 15 14 14 13 16 13 14 13 3 3 4 8 10 12 14 20 18 15 11 5 5 7 10 5 3 9 7 7 3
36 36 36 34 33 32 31 27 29 30 32 31 32 26 15 10 14 20 19 20 12 12 12 11 7 3 6 2 3 7 8 11 10 8 19 16 12 9 5 11 11 5 3 2 3 7 11
41 41 40 40 37 33 33 30 30 30 29 30 29 31 23 12 28 19 8 10 14 13 9 2 3 5 13 4 5 6 8 4 5 9 15 14 12 14 11 8 6 8 9 0 11 5 10
38 37 38 41 40 38 35 32 31 31 30 30 29 24 30 17 29 20 21 21 16 7 4 2 3 6 4 6 5 6 4 4 6 3 15 13 10 9 13 10 13 8 3 7 8 5 8
34 29 29 28 39 39 37 34 33 33 32 31 29 25 27 22 16 16 29 30 22 20 12 8 9 2 12 7 6 2 4 2 7 5 12 9 10 8 11 9 3 3 8 9 7 7 10
Wind_Direction
307 305 317 315 312 315 320 320 321 316 316 316 319 321 321 321 322 321 321 320 318 313 309 304 304 303 311 264 255 283 288 356 349 221 218 222 219 225 227 234 233 233 243 262 253 243 236
302 299 296 303 304 299 311 310 303 301 303 307 309 313 316 319 318 317 319 321 320 315 307 297 294 296 293 265 272 256 257 243 344 258 244 228 230 228 242 247 250 242 242 259 246 240 234
304 310 305 298 305 295 290 281 299 308 309 308 307 308 312 315 316 316 321 323 321 311 303 296 287 283 258 253 262 235 263 229 253 276 264 244 241 254 249 257 258 261 262 257 249 241 239
298 301 297 302 301 294 297 300 285 306 306 306 305 308 311 312 312 319 326 327 316 306 301 297 284 234 255 277 267 243 238 237 235 271 252 250 254 252 250 266 265 255 243 254 249 224 233
279 284 294 290 294 293 290 298 279 294 299 301 303 304 308 309 313 326 327 331 315 310 308 307 295 210 277 292 282 248 250 242 229 262 242 245 245 244 236 235 246 237 246 232 249 222 235
283 283 277 286 290 292 297 301 265 292 299 301 305 302 303 308 320 331 332 343 324 314 328 282 252 221 260 289 310 276 242 220 230 251 227 228 236 235 233 231 231 239 220 243 259 203 206
284 278 277 278 282 289 286 294 300 290 298 301 301 301 304 310 324 337 347 344 298 236 272 269 279 262 286 272 317 246 202 176 197 240 223 205 220 225 226 224 246 256 263 276 245 223 210
269 270 274 278 291 279 295 283 291 282 293 296 295 297 303 309 323 333 353 348 345 321 299 289 270 266 261 260 279 266 202 214 226 238 219 251 228 232 239 240 235 242 253 255 266 132 237
280 282 275 273 276 280 286 281 287 288 283 292 299 293 298 307 326 347 322 313 321 320 274 301 263 281 298 238 232 248 203 220 188 205 253 232 234 225 249 235 238 229 241 247 260 224 229
288 289 286 285 271 276 281 285 288 285 296 284 299 297 292 304 325 316 297 313 313 324 282 130 145 91 55 212 227 239 220 219 224 220 213 264 240 228 226 239 226 242 232 245 256 258 256
279 284 283 284 281 271 276 278 286 281 298 288 291 295 284 296 291 300 296 307 309 301 290 80 106 105 126 240 324 202 227 231 247 224 243 238 241 233 243 235 226 244 258 246 234 252 259
279 278 279 276 279 281 273 276 278 283 290 293 287 290 283 311 282 280 291 303 293 238 234 145 130 339 292 245 228 222 213 226 246 260 249 260 266 233 251 248 244 252 216 246 236 244 241
273 277 276 280 287 272 272 273 277 281 284 299 285 283 268 263 254 302 300 290 248 244 116 87 349 320 303 282 219 202 195 188 193 218 239 244 249 230 211 237 233 227 200 210 219 223 234
276 277 277 279 280 272 270 270 269 276 284 285 286 276 270 258 255 263 277 238 249 1 250 347 298 306 289 346 153 220 183 238 223 231 248 232 222 234 189 212 234 209 206 214 215 231 223
273 269 276 278 269 271 266 266 274 276 277 275 294 287 270 254 243 229 245 226 247 267 353 292 297 269 218 347 291 272 218 259 240 224 215 259 237 209 201 203 245 218 224 233 265 250 277
280 269 278 270 271 273 271 272 268 259 267 269 288 281 261 232 218 208 218 235 245 243 279 258 268 246 276 358 320 314 136 18 359 248 235 253 272 242 207 205 218 251 227 221 230 245 238
276 281 278 269 267 267 262 266 257 259 263 249 268 271 247 198 196 206 220 222 243 243 220 248 254 259 269 309 321 313 0 116 18 351 274 250 259 231 219 206 213 213 241 249 230 222 236
279 275 273 270 268 262 265 258 268 261 256 227 235 235 217 176 190 203 227 228 257 264 236 249 264 264 267 287 296 290 267 314 33 336 298 224 286 227 238 215 228 219 216 230 233 212 235
272 273 273 267 264 263 259 260 259 238 236 216 232 241 254 197 215 220 224 242 250 243 241 232 232 245 265 273 271 246 258 64 6 324 348 353 234 244 213 187 218 232 222 231 228 238 217
272 272 268 268 260 260 259 254 246 239 227 219 244 233 222 211 234 254 228 231 226 225 255 236 248 251 246 246 250 263 263 301 329 0 335 323 249 253 236 243 199 212 204 224 236 212 231
272 271 267 264 260 258 254 250 242 243 217 212 215 243 221 212 228 226 243 245 222 226 226 238 232 244 243 249 248 251 266 263 270 144 178 303 280 302 247 323 311 250 191 203 225 232 255
272 271 270 264 260 258 255 244 241 231 223 218 214 227 236 253 245 227 222 234 257 233 218 219 237 237 237 245 249 268 263 281 285 298 307 188 294 306 279 239 256 251 241 239 229 243 242
270 270 267 264 259 254 248 240 236 229 218 220 227 237 276 249 245 237 226 230 234 248 247 243 237 255 241 253 301 290 297 252 269 281 286 279 237 212 265 267 294 262 241 236 237 239 239
269 267 265 261 256 252 246 243 233 227 223 224 218 220 234 247 247 241 244 225 229 244 242 253 257 232 256 306 297 272 265 262 254 248 248 255 250 242 219 199 223 238 54 239 239 247 250
272 268 263 258 252 248 245 244 233 226 226 226 222 218 225 244 247 248 247 256 251 248 237 262 263 281 347 18 308 263 238 240 243 236 226 226 257 268 249 250 272 233 281 235 224 243 139
271 266 260 253 249 245 242 237 227 228 226 223 234 219 223 247 243 267 252 251 240 245 259 238 250 251 205 153 210 247 227 220 199 198 207 202 228 244 205 247 254 277 123 319 253 235 108
273 266 257 246 242 239 237 233 228 226 223 221 228 218 223 242 249 260 277 276 244 244 258 207 163 201 193 191 238 243 238 226 214 187 183 191 201 222 233 246 261 263 155 350 223 105 74
277 270 265 250 231 230 230 229 225 222 220 219 225 218 214 233 250 255 260 258 264 243 228 63 152 182 178 214 238 230 237 239 244 225 187 183 190 207 228 235 241 256 164 245 49 39 27
283 270 254 246 232 221 222 222 220 219 219 216 223 221 221 221 246 247 251 255 261 259 261 231 254 275 201 218 234 181 261 190 261 235 205 200 206 200 194 218 156 118 86 67 29 6 9
Height
1535 1534 1534 1533 1533 1532 1530 1529 1526 1527 1527 1525 1522 1518 1515 1511 1507 1505 1501 1498 1496 1492 1490 1486 1483 1480 1479 1480 1473 1474 1470 1468 1467 1469 1473 1471 1469 1467 1462 1459 1456 1454 1453 1449 1449 1449 1451
1534 1534 1532 1530 1532 1530 1530 1528 1527 1524 1522 1522 1520 1518 1514 1510 1505 1502 1498 1494 1492 1489 1485 1483 1480 1478 1479 1476 1467 1467 1466 1465 1469 1473 1472 1469 1467 1464 1460 1456 1450 1449 1451 1449 1445 1446 1448
1534 1532 1530 1530 1526 1529 1527 1525 1526 1524 1520 1517 1516 1515 1511 1508 1504 1501 1494 1490 1488 1484 1481 1478 1476 1474 1474 1461 1463 1462 1462 1462 1466 1471 1470 1468 1467 1464 1460 1455 1451 1449 1447 1445 1442 1440 1441
1530 1530 1529 1528 1526 1525 1524 1522 1521 1520 1521 1517 1512 1512 1509 1506 1502 1498 1491 1486 1484 1479 1475 1473 1472 1472 1464 1458 1457 1455 1458 1458 1462 1466 1468 1467 1465 1463 1461 1456 1449 1448 1446 1445 1432 1434 1435
1526 1527 1526 1525 1524 1524 1520 1518 1518 1516 1516 1515 1513 1509 1506 1505 1501 1493 1489 1482 1480 1475 1471 1470 1469 1470 1458 1454 1452 1452 1454 1456 1458 1463 1462 1464 1464 1462 1459 1455 1449 1442 1442 1437 1431 1421 1426
1524 1522 1522 1522 1522 1521 1519 1516 1515 1513 1510 1511 1510 1508 1506 1501 1497 1492 1485 1481 1479 1475 1471 1471 1469 1471 1456 1455 1454 1452 1452 1454 1456 1460 1460 1460 1459 1455 1452 1443 1445 1437 1433 1430 1424 1416 1426
1519 1519 1519 1519 1518 1516 1517 1516 1513 1511 1507 1505 1506 1505 1505 1498 1495 1491 1486 1481 1480 1475 1472 1468 1459 1456 1452 1454 1454 1452 1452 1455 1458 1458 1451 1449 1452 1442 1441 1437 1432 1429 1420 1419 1416 1412 1421
1516 1515 1515 1513 1513 1514 1513 1511 1511 1509 1506 1504 1501 1501 1501 1498 1494 1490 1489 1490 1488 1486 1470 1460 1455 1452 1450 1452 1454 1451 1451 1455 1457 1455 1446 1449 1440 1437 1435 1432 1431 1431 1428 1427 1417 1416 1428
1513 1510 1509 1510 1510 1510 1509 1507 1507 1506 1506 1502 1499 1496 1497 1495 1494 1490 1493 1493 1488 1484 1475 1452 1449 1446 1446 1447 1448 1447 1449 1449 1451 1457 1452 1440 1430 1433 1433 1428 1427 1426 1428 1427 1426 1415 1424
1508 1507 1507 1506 1506 1505 1505 1506 1502 1502 1501 1499 1498 1495 1493 1493 1495 1493 1491 1491 1487 1484 1469 1440 1442 1443 1444 1445 1446 1444 1444 1445 1446 1445 1449 1443 1426 1427 1430 1425 1424 1427 1421 1424 1426 1426 1428
1502 1503 1502 1503 1502 1501 1501 1500 1500 1498 1498 1496 1496 1493 1491 1492 1492 1493 1492 1488 1486 1484 1447 1439 1440 1443 1443 1445 1442 1439 1441 1444 1438 1439 1436 1432 1424 1425 1427 1420 1421 1421 1420 1418 1425 1426 1424
1498 1497 1497 1497 1497 1497 1498 1497 1495 1494 1493 1492 1492 1490 1490 1492 1490 1491 1490 1485 1486 1476 1439 1436 1437 1437 1436 1432 1437 1438 1440 1441 1440 1436 1432 1426 1423 1423 1430 1423 1419 1418 1423 1421 1424 1423 1431
1492 1493 1492 1493 1491 1490 1490 1492 1492 1490 1490 1488 1488 1487 1487 1490 1488 1488 1488 1485 1471 1451 1435 1434 1437 1436 1432 1427 1427 1434 1436 1436 1437 1444 1433 1423 1423 1418 1423 1426 1417 1418 1422 1431 1434 1427 1428
1487 1487 1487 1487 1486 1484 1485 1487 1487 1486 1486 1486 1486 1483 1483 1486 1487 1487 1487 1480 1464 1437 1436 1436 1437 1433 1428 1426 1424 1425 1432 1432 1434 1430 1427 1423 1426 1415 1416 1422 1418 1416 1416 1420 1431 1421 1409
1481 1481 1480 1480 1480 1480 1480 1482 1483 1483 1483 1483 1482 1481 1480 1482 1483 1485 1486 1468 1443 1436 1436 1441 1434 1430 1425 1425 1425 1419 1421 1423 1424 1427 1431 1417 1410 1403 1409 1414 1417 1412 1415 1409 1412 1412 1411
1474 1475 1474 1474 1474 1475 1475 1477 1478 1479 1479 1480 1482 1478 1474 1477 1479 1481 1481 1462 1446 1445 1446 1445 1438 1433 1430 1430 1424 1418 1418 1424 1423 1423 1417 1415 1417 1401 1406 1414 1413 1409 1402 1414 1411 1429 1431
1468 1467 1468 1469 1469 1469 1470 1472 1474 1474 1477 1478 1480 1477 1468 1470 1475 1476 1465 1455 1449 1446 1447 1447 1438 1436 1433 1435 1432 1426 1422 1423 1426 1422 1419 1414 1414 1410 1406 1407 1408 1411 1409 1403 1400 1405 1415
1461 1462 1461 1462 1463 1463 1465 1467 1470 1471 1474 1474 1477 1474 1466 1467 1471 1465 1460 1452 1450 1445 1447 1446 1444 1441 1440 1438 1435 1431 1425 1424 1429 1429 1420 1416 1412 1408 1408 1397 1396 1395 1399 1402 1403 1411 1400
1455 1455 1455 1455 1456 1458 1459 1461 1463 1466 1469 1471 1471 1467 1464 1464 1457 1454 1453 1452 1451 1446 1444 1442 1441 1439 1437 1437 1438 1428 1426 1426 1429 1431 1431 1425 1412 1413 1401 1401 1397 1396 1393 1393 1395 1398 1418
1448 1447 1448 1449 1450 1452 1453 1456 1459 1461 1465 1468 1468 1460 1458 1458 1454 1448 1446 1447 1446 1446 1441 1439 1438 1436 1437 1435 1435 1432 1428 1427 1430 1430 1432 1431 1415 1405 1403 1395 1386 1394 1392 1393 1393 1405 1405
1440 1440 1440 1442 1443 1445 1447 1450 1453 1456 1459 1463 1462 1454 1449 1446 1445 1446 1445 1443 1439 1440 1439 1438 1436 1435 1433 1433 1431 1431 1429 1427 1428 1429 1430 1435 1420 1410 1397 1398 1396 1387 1393 1400 1401 1397 1402
1432 1432 1433 1434 1436 1438 1440 1442 1445 1450 1454 1456 1455 1452 1448 1443 1440 1438 1438 1441 1437 1433 1434 1434 1434 1430 1430 1431 1430 1428 1428 1432 1428 1426 1427 1432 1429 1422 1414 1404 1404 1402 1398 1396 1397 1398 1400
1423 1424 1424 1426 1428 1430 1432 1435 1439 1443 1448 1447 1449 1451 1450 1441 1436 1434 1432 1433 1432 1434 1434 1435 1432 1431 1431 1432 1433 1435 1435 1440 1436 1432 1429 1427 1426 1430 1427 1412 1409 1411 1401 1399 1398 1395 1397
1414 1415 1416 1417 1419 1422 1424 1428 1432 1435 1439 1441 1443 1448 1448 1439 1434 1430 1429 1432 1429 1429 1429 1431 1431 1434 1435 1437 1437 1436 1434 1433 1432 1430 1431 1427 1420 1419 1419 1417 1429 1395 1392 1391 1393 1392 1390
1404 1404 1406 1407 1409 1412 1416 1420 1424 1428 1432 1435 1438 1441 1442 1438 1433 1429 1430 1428 1425 1429 1432 1431 1435 1439 1438 1440 1440 1431 1425 1427 1424 1420 1421 1424 1421 1415 1412 1406 1395 1388 1392 1395 1396 1393 1393
1391 1392 1394 1396 1399 1402 1407 1411 1415 1420 1425 1429 1431 1437 1439 1439 1430 1429 1424 1423 1425 1425 1426 1429 1434 1436 1440 1442 1441 1427 1411 1405 1403 1404 1411 1418 1422 1421 1414 1415 1408 1393 1389 1398 1396 1400 1395
1376 1377 1379 1382 1387 1392 1396 1402 1407 1412 1418 1423 1425 1432 1436 1435 1429 1431 1433 1427 1426 1426 1425 1429 1433 1437 1439 1437 1433 1420 1407 1401 1400 1403 1408 1412 1417 1419 1415 1412 1402 1392 1395 1401 1405 1407 1405
1359 1360 1361 1364 1372 1379 1386 1393 1399 1405 1411 1416 1420 1426 1430 1431 1428 1429 1428 1428 1429 1426 1428 1430 1433 1431 1434 1430 1421 1410 1406 1400 1395 1399 1397 1405 1414 1415 1416 1416 1412 1396 1397 1403 1407 1407 1410
1347 1346 1347 1351 1356 1367 1376 1383 1390 1397 1404 1411 1416 1422 1426 1429 1425 1425 1424 1425 1425 1426 1430 1429 1425 1423 1421 1419 1409 1411 1407 1404 1397 1396 1401 1404 1400 1399 1401 1400 1397 1397 1403 1408 1411 1411 1412